This is the latest recevied weather packets stored in our database for station/object N7CEE-2. If no packets are shown the sender has not sent any weather packets the latest 10 day(s).
| Time | Temp. | Humidity | Pressure | Rain* | Wind** | Luminosity | Snow |
|---|---|---|---|---|---|---|---|
| 1777448777 | 17.22° C | 30% | 1016.9 hPa | 0 mm | - | 0 W/m² | - |
| 1777448474 | 17.22° C | 30% | 1017.2 hPa | 0 mm | - | 0 W/m² | - |
| 1777448170 | 17.22° C | 30% | 1017.2 hPa | 0 mm | - | 0 W/m² | - |
| 1777447866 | 17.78° C | 29% | 1017.3 hPa | 0 mm | - | 0 W/m² | - |
| 1777447562 | 17.78° C | 29% | 1017.3 hPa | 0 mm | - | 0 W/m² | - |
| 1777447258 | 17.78° C | 29% | 1017.4 hPa | 0 mm | - | 0 W/m² | - |
| 1777446957 | 18.33° C | 28% | 1017.2 hPa | 0 mm | - | 0 W/m² | - |
| 1777446654 | 18.33° C | 28% | 1017.2 hPa | 0 mm | - | 0 W/m² | - |
| 1777446350 | 17.78° C | 29% | 1017.3 hPa | 0 mm | - | 0 W/m² | - |
| 1777446046 | 17.78° C | 29% | 1017 hPa | 0 mm | - | 0 W/m² | - |
| 1777445743 | 17.78° C | 29% | 1017.3 hPa | 0 mm | - | 0 W/m² | - |
| 1777445438 | 17.78° C | 29% | 1017 hPa | 0 mm | - | 0 W/m² | - |
| 1777445135 | 17.78° C | 32% | 1017 hPa | 0 mm | - | 0 W/m² | - |
| 1777444832 | 17.78° C | 32% | 1017.1 hPa | 0 mm | - | 0 W/m² | - |
| 1777444527 | 17.78° C | 32% | 1017.1 hPa | 0 mm | - | 0 W/m² | - |
| 1777444219 | 18.33° C | 31% | 1017.1 hPa | 0 mm | - | 0 W/m² | - |
| 1777443915 | 18.89° C | 31% | 1017 hPa | 0 mm | - | 0 W/m² | - |
| 1777443610 | 18.89° C | 30% | 1017.1 hPa | 0 mm | - | 0 W/m² | - |
| 1777443300 | 18.89° C | 30% | 1016.8 hPa | 0 mm | - | 0 W/m² | - |
| 1777442998 | 18.89° C | 30% | 1016.9 hPa | 0 mm | - | 0 W/m² | - |
| 1777442695 | 19.44° C | 28% | 1016.9 hPa | 0 mm | - | 0 W/m² | - |
| 1777442390 | 20° C | 28% | 1017 hPa | 0 mm | - | 0 W/m² | - |
| 1777442087 | 20° C | 28% | 1016.9 hPa | 0 mm | - | 0 W/m² | - |
| 1777441782 | 20° C | 28% | 1017 hPa | 0 mm | - | 0 W/m² | - |
| 1777441478 | 20° C | 28% | 1017 hPa | 0 mm | - | 0 W/m² | - |
* Rain latest hour (hover to see other rain measurements)
** Current wind speed in m/s (hover to see current wind gust speed)